EW8780 Weather Reports


Display with metric or nautical units.
time (UTC)temp
F
wind
direction
speed
MPH
gust
MPH
rain 1hr
in
rain 24hr
in
rain mn
in
humidity
%
barometer
mb
20260507091527 52 179 0.0 0.0 0.00 0.02 0.00 94 1017.2
20260507090023 52 179 0.0 0.0 0.00 0.02 0.00 93 1017.3
20260507084523 52 179 0.0 0.0 0.00 0.02 0.00 93 1017.3
20260507083022 52 179 0.0 0.0 0.00 0.02 0.00 93 1017.2
20260507081519 52 179 0.0 0.0 0.00 0.02 0.00 93 1017.3
20260507080018 52 179 0.0 0.0 0.00 0.02 0.00 93 1017.3
20260507074518 52 179 0.0 0.0 0.00 0.02 0.00 93 1017.4
20260507073016 52 179 0.0 0.0 0.00 0.02 0.00 93 1017.4
20260507071539 52 179 0.0 0.0 0.00 0.02 0.00 93 1017.5
20260507070014 53 179 0.0 0.0 0.00 0.02 0.00 93 1017.6
20260507064515 53 179 0.0 0.0 0.00 0.02 0.02 93 1017.6
20260507063012 53 179 0.0 0.0 0.00 0.02 0.02 92 1017.7
20260507061511 53 179 0.0 0.0 0.00 0.02 0.02 92 1017.8
20260507060011 53 179 0.0 0.0 0.00 0.02 0.02 92 1017.8
20260507054511 53 179 0.0 0.0 0.00 0.02 0.02 92 1017.9
20260507053013 53 179 0.0 0.0 0.00 0.02 0.02 92 1017.9
20260507051516 53 179 0.0 0.0 0.00 0.02 0.02 93 1018.1
20260507050012 53 179 0.0 0.0 0.00 0.02 0.02 93 1018.0
20260507044508 53 179 0.0 0.0 0.00 0.02 0.02 93 1018.0
20260507043011 53 179 0.0 0.0 0.00 0.02 0.02 93 1018.2
20260507041507 53 179 0.0 0.0 0.00 0.02 0.02 93 1018.2
20260507040007 53 179 0.0 0.0 0.00 0.02 0.02 92 1018.1
20260507034514 53 179 0.0 0.0 0.00 0.02 0.02 92 1017.9
20260507033014 53 179 0.0 0.0 0.00 0.02 0.02 92 1018.0
20260507031505 54 179 0.0 0.0 0.00 0.02 0.02 91 1018.0
20260507030004 54 179 0.0 2.0 0.00 0.02 0.02 91 1018.0
20260507024505 54 179 1.0 3.0 0.00 0.02 0.02 90 1018.2
20260507023011 54 76 0.0 3.0 0.00 0.02 0.02 89 1018.3
20260507021503 55 217 0.0 3.0 0.00 0.02 0.02 88 1018.3
20260507020006 55 188 0.0 2.0 0.00 0.02 0.02 86 1018.4
20260507014503 56 62 0.0 2.0 0.00 0.02 0.02 86 1018.3
20260507013002 57 63 0.0 2.0 0.00 0.02 0.02 85 1018.5
20260507011504 57 132 0.0 2.0 0.00 0.02 0.02 83 1018.5
20260507010003 57 51 0.0 4.0 0.00 0.02 0.02 82 1018.6
20260507004501 58 176 0.0 3.0 0.00 0.02 0.02 82 1018.7
20260507003102 58 163 0.0 5.0 0.00 0.02 0.02 81 1018.6
20260507001559 58 191 0.0 4.0 0.00 0.02 0.02 82 1018.7
20260507000059 58 215 2.0 7.0 0.00 0.02 0.02 82 1018.8
20260506234559 58 210 3.0 7.0 0.00 0.02 0.02 80 1018.7
20260506233059 59 217 1.0 9.0 0.00 0.02 0.02 81 1018.7
20260506231558 60 217 2.0 7.0 0.00 0.02 0.02 81 1018.8
20260506230055 59 213 3.0 8.0 0.00 0.02 0.02 79 1018.8
20260506224554 60 214 4.0 8.0 0.00 0.02 0.02 82 1018.9
20260506223053 59 230 3.0 7.0 0.00 0.02 0.02 81 1019.0
20260506221551 59 205 4.0 6.0 0.00 0.02 0.02 80 1019.2
20260506220051 59 192 3.0 9.0 0.00 0.02 0.02 81 1019.2
20260506214650 58 180 1.0 8.0 0.00 0.02 0.02 83 1019.2
20260506213048 59 174 1.0 4.0 0.00 0.02 0.02 82 1019.3
20260506211547 59 194 1.0 4.0 0.00 0.02 0.02 83 1019.3
20260506210045 58 134 1.0 6.0 0.00 0.02 0.02 83 1019.3
20260506204549 58 163 2.0 6.0 0.00 0.02 0.02 84 1019.3
20260506203044 58 135 3.0 7.0 0.00 0.02 0.02 84 1019.1
20260506201543 57 195 3.0 7.0 0.00 0.02 0.02 86 1019.1
20260506200044 57 211 3.0 7.0 0.00 0.02 0.02 86 1019.0
20260506194543 57 221 4.0 7.0 0.00 0.02 0.02 87 1019.0
20260506193041 57 195 2.0 7.0 0.00 0.02 0.02 87 1019.0
20260506191540 57 219 3.0 6.0 0.00 0.02 0.02 87 1019.0
20260506190039 57 208 2.0 5.0 0.00 0.02 0.02 86 1019.1
20260506184538 57 163 0.0 4.0 0.00 0.02 0.02 89 1019.1
20260506183036 56 219 1.0 5.0 0.00 0.02 0.02 90 1019.2
20260506181534 56 204 2.0 4.0 0.00 0.02 0.02 91 1019.1
20260506180036 56 211 0.0 5.0 0.00 0.02 0.02 92 1019.0
20260506174532 55 202 1.0 4.0 0.00 0.02 0.02 92 1018.9
20260506173031 55 194 1.0 4.0 0.00 0.02 0.02 93 1018.7
20260506171530 55 210 0.0 4.0 0.00 0.02 0.02 93 1018.8
20260506170029 55 211 0.0 2.0 0.00 0.02 0.02 94 1018.8
20260506164528 55 222 0.0 2.0 0.00 0.02 0.02 94 1018.7
20260506163031 54 224 2.0 6.0 0.00 0.02 0.02 94 1018.5
20260506161526 55 198 4.0 7.0 0.00 0.02 0.02 95 1018.4
20260506160023 55 208 0.0 2.0 0.00 0.02 0.02 96 1018.3
20260506154520 54 207 0.0 3.0 0.00 0.02 0.02 95 1018.4
20260506153016 54 205 1.0 3.0 0.00 0.02 0.02 96 1018.1
20260506151513 54 202 0.0 1.0 0.00 0.02 0.02 96 1018.1
20260506150008 54 202 0.0 2.0 0.00 0.02 0.02 96 1018.0
20260506144512 53 202 0.0 1.0 0.00 0.02 0.02 96 1018.1
20260506143006 53 202 0.0 1.0 0.00 0.02 0.02 96 1018.3
20260506141505 53 202 0.0 0.0 0.00 0.02 0.02 96 1018.2
20260506140004 52 202 0.0 0.0 0.00 0.02 0.02 96 1018.0
20260506134502 52 202 0.0 0.0 0.00 0.02 0.02 96 1017.8
20260506133001 52 202 0.0 0.0 0.00 0.02 0.02 95 1017.8
20260506131559 52 202 0.0 0.0 0.00 0.02 0.02 95 1017.7
20260506130058 52 202 0.0 0.0 0.00 0.02 0.02 95 1017.6
20260506124557 52 202 0.0 0.0 0.01 0.02 0.02 95 1017.6
20260506123056 52 202 0.0 0.0 0.01 0.02 0.02 95 1017.5
20260506121554 52 202 0.0 0.0 0.01 0.02 0.02 95 1017.2
20260506120053 52 202 0.0 0.0 0.02 0.02 0.02 95 1017.3
20260506114551 52 202 0.0 0.0 0.01 0.01 0.01 95 1017.2
20260506113050 52 202 0.0 0.0 0.01 0.01 0.01 95 1017.0
20260506111547 52 202 0.0 1.0 0.01 0.01 0.01 95 1016.8
20260506110047 52 202 0.0 2.0 0.00 0.00 0.00 95 1016.8
20260506104548 52 202 0.0 0.0 0.00 0.00 0.00 95 1016.7
20260506103043 52 202 0.0 2.0 0.00 0.00 0.00 95 1016.5
20260506101541 52 202 0.0 0.0 0.00 0.00 0.00 94 1016.3
20260506100038 52 202 0.0 0.0 0.00 0.00 0.00 94 1016.3
20260506094537 53 202 0.0 0.0 0.00 0.00 0.00 94 1016.2
20260506093040 52 202 0.0 0.0 0.00 0.00 0.00 94 1016.1